AirNav   Everest Fuels
 
 995 users online  

JLA Quartz Creek Airport
Cooper Landing, Alaska, USA

GOING TO COOPER LANDING?


FAA INFORMATION EFFECTIVE 21 MAY 2020

Location

FAA Identifier: JLA
Lat/Long: 60-29-03.3500N 149-43-22.4400W
60-29.055833N 149-43.374000W
60.4842639,-149.7229000
(estimated)
Elevation: 466 ft. / 142 m (estimated)
Variation: 25E (1985)
From city: 3 miles E of COOPER LANDING, AK
Time zone: UTC -8 (UTC -9 during Standard Time)
Zip code: 99572

Airport Operations

Airport use: Open to the public
Control tower: no
ARTCC: ANCHORAGE CENTER
FSS: KENAI FLIGHT SERVICE STATION [907-283-7211]
NOTAMs facility: ENA (NOTAM-D service available)
Attendance: UNATNDD
Wind indicator: yes, WINDSOCK IS BELOW TREELINE AND MAY BE UNRELIABLE.
Segmented circle: no

Airport Communications

CTAF: 122.9

Nearby radio navigation aids

NDB name  Hdg/Dist  Freq  Var  ID
SOLDOTNA074/34.234615EOLT --- .-.. -

Airport Services

Parking: tiedowns
Airframe service: NONE
Powerplant service: NONE
Bottled oxygen: NONE
Bulk oxygen: NONE

Runway Information

Runway 4/22

Dimensions: 2200 x 60 ft. / 671 x 18 m
Surface: gravel/dirt, in good condition
RUNWAY 4  RUNWAY 22
Latitude: 60-28.956500N60-29.155167N
Longitude: 149-43.679333W149-43.068667W
Elevation: 459.0 ft.466.0 ft.
Traffic pattern: leftleft
Runway heading: 032 magnetic, 057 true212 magnetic, 237 true
Obstructions: 40 ft. trees, 120 ft. right of centerline
MTN LCTD 2 SM FM APCH END.
4 ft. brush, 117 ft. left and right of centerline

Airport Ownership and Management from official FAA records

Ownership: Publicly-owned
Owner: ALASKA DOT&PF CENTRAL REGION
P O BOX 196900
ANCHORAGE, AK 99519-6900
Phone (907) 269-0760
Manager: SEAN MONTGOMERY/CARL HIGH
STATE OF ALASKA - DOTPF, P.O. BOX 1327
SOLDOTNA, AK 99669
Phone 907-262-2199

Airport Operational Statistics

Aircraft based on the field: 3
Single engine airplanes: 3
    
Aircraft operations: avg 38/month *
89% transient general aviation
11% local general aviation
* for 12-month period ending 31 December 2017

Additional Remarks

RY 04/22 EDGES NOT MKD.
STATE MAINTENANCE ON IRREGULAR BASIS, RCMD VISUAL INSPECTION PRIOR TO LANDING.
WX CAMERA AVBL ON INTERNET AT HTTP://AVCAMS.FAA.GOV

Instrument Procedures

There are no published instrument procedures at JLA.

Some nearby airports with instrument procedures:

PAWD - Seward Airport (23 nm SE)
PASX - Soldotna Airport (39 nm W)
PANC - Ted Stevens Anchorage International Airport (42 nm N)
PAMR - Merrill Field Airport (44 nm N)
PAEN - Kenai Municipal Airport (45 nm W)
 
Loc | Ops | Rwys | IFR | FBO | Links
Com | Nav | Svcs | Stats | Notes

Crowley
 
Area around JLA (Quartz Creek Airport)
 
Road maps at: MapQuest Bing Google
 
Aerial photo
WARNING: Photo may not be current or correct
Aerial photo of JLA (Quartz Creek Airport)
Do you have a better or more recent aerial photo of Quartz Creek Airport that you would like to share? If so, please send us your photo.

 
Sectional chart

 
Airport distance calculator
Flying to Quartz Creek Airport? Find the distance to fly.

From to JLA

Sunrise and sunset
Times for 04-Jun-2020
 Local
(UTC-8)
 Zulu
(UTC)
Morning civil twilight03:0011:00
Sunrise04:3812:38
Sunset23:1707:17
Evening civil twilight00:5508:55

Current date and time
Zulu (UTC)  05-Jun-2020 00:33:51
Local (UTC-8)  04-Jun-2020 16:33:51
 
METAR
PAWD 
24nm S 
050018Z AUTO 17013KT 10SM SCT023 BKN029 OVC065 11/07 A2999 RMK AO2 T01060067 TSNO
PATO 
31nm NE 
042353Z AUTO 10007KT 060V150 10SM BKN055 13/06 A2997 RMK AO2 SLP148 T01330061 10133 20106 TSNO $
PASX 
39nm W 
042356Z AUTO 28008KT 10SM FEW075 14/05 A2998 RMK AO2 SLP162 60000 T01440050 10144 20117 58012
PANC 
42nm N 
042353Z VRB06KT 10SM FEW050 SCT080 SCT250 14/07 A2995 RMK AO2 SLP141 T01440067 10144 20100 56013
PALH 
43nm N 
042353Z 30007KT 10SM CLR 15/07 A2995 RMK AO2 SLP143 T01500067 10150 20106 56013
PAMR 
44nm N 
042353Z 28008KT 10SM FEW070 17/06 A2994 RMK AO2 SLP141 T01720061 10172 20117 56012
PAEN 
45nm W 
042353Z 22011KT 10SM CLR 12/06 A2997 RMK AO2 SLP151 T01170056 10122 20100 56013
PAED 
46nm N 
042356Z AUTO 23006KT 10SM CLR 15/06 A2994 RMK AO2 SLP135 T01530058 10154 20113 57013 $
PAFR 
47nm N 
042358Z AUTO 28004KT 10SM CLR 16/06 A2991 RMK AO2 SLP135 T01610057 10161 20108 57013 $
TAF
PANC 
42nm N 
042106Z 0421/0524 29006KT P6SM SCT060 BKN120 FM050900 VRB04KT P6SM FEW060 SCT120
PAEN 
45nm W 
041737Z 0418/0518 20015KT P6SM BKN070 FM050800 19008KT P6SM FEW070
PAED 
46nm N 
041800Z 0418/0524 22009KT 9999 SCT060 BKN100 QNH2999INS BECMG 0420/0421 23010G15KT 9999 VCSH SCT050 BKN100 QNH2992INS BECMG 0504/0505 VRB06KT 9999 NSW SCT050 BKN100 QNH2991INS BECMG 0517/0518 23009KT 9999 SCT050 QNH2985INS TX15/0423Z TN08/0514Z
NOTAMs
Click for the latest NOTAMs
NOTAMs are issued by the DoD/FAA and will open in a separate window not controlled by AirNav.

 

 
 

Would you like to see your business listed on this page?

 If your business provides an interesting product or service to pilots, flight crews, aircraft, or users of the Quartz Creek Airport, you should consider listing it here.  To start the listing process, click on the button below
 
Add a business
 

Other Pages about Quartz Creek Airport

Update a link
 
Copyright © AirNav, LLC. All rights reserved. Privacy Policy  Contact